TimeEDT,TemperatureF,Dew PointF,Humidity,Sea Level PressureIn,VisibilityMPH,Wind Direction,Wind SpeedMPH,Gust SpeedMPH,PrecipitationIn,Events,Conditions,WindDirDegrees,DateUTC
12:05 AM,68.9,67.5,95,30.12,10.0,Calm,Calm,-,N/A,,Clear,0,2013-08-11 04:05:00
12:25 AM,68.2,67.5,98,30.12,10.0,Calm,Calm,-,N/A,,Clear,0,2013-08-11 04:25:00
12:45 AM,68.4,68.4,100,30.11,10.0,Calm,Calm,-,N/A,,Clear,0,2013-08-11 04:45:00
1:05 AM,67.5,67.5,100,30.11,10.0,Calm,Calm,-,N/A,,Clear,0,2013-08-11 05:05:00
1:25 AM,67.1,67.1,100,30.11,10.0,Calm,Calm,-,N/A,,Clear,0,2013-08-11 05:25:00
1:45 AM,67.6,67.6,100,30.10,10.0,Calm,Calm,-,N/A,,Clear,0,2013-08-11 05:45:00
2:05 AM,67.6,67.6,100,30.10,10.0,Calm,Calm,-,N/A,,Clear,0,2013-08-11 06:05:00
2:25 AM,67.8,67.8,100,30.10,10.0,Calm,Calm,-,N/A,,Clear,0,2013-08-11 06:25:00
2:45 AM,67.3,67.3,100,30.11,10.0,Calm,Calm,-,N/A,,Scattered Clouds,0,2013-08-11 06:45:00
3:05 AM,67.3,67.3,100,30.11,7.0,Calm,Calm,-,N/A,,Mostly Cloudy,0,2013-08-11 07:05:00
3:25 AM,67.3,67.3,100,30.10,10.0,Calm,Calm,-,N/A,,Scattered Clouds,0,2013-08-11 07:25:00
3:45 AM,67.1,67.1,100,30.11,10.0,Calm,Calm,-,N/A,,Scattered Clouds,0,2013-08-11 07:45:00
4:05 AM,67.5,67.5,100,30.11,10.0,Calm,Calm,-,N/A,,Mostly Cloudy,0,2013-08-11 08:05:00
4:25 AM,67.8,67.8,100,30.11,10.0,Calm,Calm,-,N/A,,Mostly Cloudy,0,2013-08-11 08:25:00
4:45 AM,68.4,68.4,100,30.11,10.0,Calm,Calm,-,N/A,,Scattered Clouds,0,2013-08-11 08:45:00
5:05 AM,68.9,68.9,100,30.11,10.0,Calm,Calm,-,N/A,,Scattered Clouds,0,2013-08-11 09:05:00
5:25 AM,69.3,69.3,100,30.12,10.0,Calm,Calm,-,N/A,,Mostly Cloudy,0,2013-08-11 09:25:00
5:45 AM,69.4,69.4,100,30.13,10.0,Calm,Calm,-,N/A,,Scattered Clouds,0,2013-08-11 09:45:00
5:53 AM,68.0,68.0,100,30.13,10.0,Calm,Calm,-,N/A,,Mostly Cloudy,0,2013-08-11 09:53:00
6:05 AM,68.9,68.9,100,30.13,10.0,Calm,Calm,-,N/A,,Clear,0,2013-08-11 10:05:00
6:25 AM,68.4,68.4,100,30.13,10.0,Calm,Calm,-,N/A,,Scattered Clouds,0,2013-08-11 10:25:00
6:45 AM,69.3,69.3,100,30.13,10.0,Calm,Calm,-,N/A,,Mostly Cloudy,0,2013-08-11 10:45:00
6:52 AM,69.8,69.8,100,30.13,10.0,Calm,Calm,-,N/A,,Overcast,0,2013-08-11 10:52:00
7:06 AM,69.6,69.6,100,30.13,10.0,Calm,Calm,-,N/A,,Mostly Cloudy,0,2013-08-11 11:06:00
7:26 AM,70.0,70.0,100,30.14,7.0,Calm,Calm,-,N/A,,Mostly Cloudy,0,2013-08-11 11:26:00
7:42 AM,70.9,70.9,100,30.14,10.0,Calm,Calm,-,N/A,,Mostly Cloudy,0,2013-08-11 11:42:00
7:53 AM,71.6,71.6,100,30.13,10.0,Calm,Calm,-,N/A,,Overcast,0,2013-08-11 11:53:00
8:50 AM,73.4,73.4,100,30.15,10.0,NNE,4.6,-,N/A,,Overcast,20,2013-08-11 12:50:00
9:50 AM,73.4,71.6,94,30.15,10.0,ENE,5.8,-,N/A,,Overcast,70,2013-08-11 13:50:00
10:45 AM,75.2,71.6,89,30.15,10.0,East,3.5,-,N/A,,Mostly Cloudy,90,2013-08-11 14:45:00
11:45 AM,77.0,71.6,83,30.15,10.0,NE,3.5,-,N/A,,Overcast,50,2013-08-11 15:45:00
12:06 PM,79.0,70.7,76,30.15,10.0,ENE,3.5,-,N/A,,Overcast,60,2013-08-11 16:06:00
12:16 PM,80.4,70.3,71,30.14,10.0,SE,3.5,-,N/A,,Scattered Clouds,140,2013-08-11 16:16:00
12:45 PM,82.4,71.6,70,30.13,10.0,Calm,Calm,-,N/A,,Overcast,0,2013-08-11 16:45:00
1:46 PM,82.4,69.8,66,30.13,10.0,South,3.5,-,N/A,,Overcast,180,2013-08-11 17:46:00
2:50 PM,84.2,69.8,62,30.11,10.0,West,3.5,-,N/A,,Overcast,270,2013-08-11 18:50:00
3:54 PM,82.4,71.6,70,30.10,10.0,SE,3.5,-,N/A,,Overcast,130,2013-08-11 19:54:00
4:55 PM,80.6,69.8,70,30.09,10.0,South,4.6,-,N/A,,Overcast,170,2013-08-11 20:55:00
5:50 PM,82.4,68.0,62,30.08,10.0,South,8.1,-,N/A,,Mostly Cloudy,180,2013-08-11 21:50:00
6:50 PM,80.6,68.0,65,30.06,10.0,South,5.8,-,N/A,,Scattered Clouds,170,2013-08-11 22:50:00
7:50 PM,77.0,68.0,74,30.07,10.0,SSE,5.8,-,N/A,,Scattered Clouds,160,2013-08-11 23:50:00
9:50 PM,75.2,66.2,73,30.08,10.0,South,5.8,-,N/A,,Clear,180,2013-08-12 01:50:00
11:07 PM,72.0,68.9,90,30.08,10.0,Calm,Calm,-,N/A,,Mostly Cloudy,0,2013-08-12 03:07:00
11:27 PM,71.8,69.3,92,30.08,10.0,Calm,Calm,-,N/A,,Scattered Clouds,0,2013-08-12 03:27:00
11:47 PM,71.6,69.8,94,30.08,10.0,Calm,Calm,-,N/A,,Mostly Cloudy,0,2013-08-12 03:47:00